User: anonymous   Login
Location: Brno
(49.2000°N, 16.6330°E)
Time: 03:18:34
(UTC+01:00)
Language:

Cosmos 1459 Rocket - Orbit

View from above orbital plane
View from above orbital plane
View from above satellite
View from above satellite

Ground track
Ground track

The orbit data is extracted from the following two-line orbital elements,

1 14059U 83042B   17343.91544354 +.00000038 +00000-0 +21565-4 0  9993
2 14059 082.9717 291.4862 0043619 131.9416 228.5473 13.78606917739700
Epoch (UTC): 09 December 2017 21:58:14
Eccentricity: 0.0043619
inclination: 82.9717°
perigee height: 937 km
apogee height: 1001 km
right ascension of ascending node: 291.4862°
argument of perigee: 131.9416°
revolutions per day: 13.78606917
mean anomaly at epoch: 228.5473°
orbit number at epoch: 73970

The dashed part of the orbit path shows where the satellite is in the earth's shadow,  

DLR